This is the latest recevied weather packets stored in our database for station/object KC3QLX. If no packets are shown the sender has not sent any weather packets the latest 10 day(s).
| Time | Temp. | Humidity | Pressure | Rain* | Wind** | Luminosity | Snow |
|---|---|---|---|---|---|---|---|
| 1777663546 | 17.22° C | 44% | 1010.6 hPa | 0 mm | - | 254 W/m² | - |
| 1777663244 | 18.33° C | 41% | 1010.7 hPa | 0 mm | - | 240 W/m² | - |
| 1777662941 | 17.78° C | 46% | 1010.8 hPa | 0 mm | - | 632 W/m² | - |
| 1777662638 | 18.33° C | 42% | 1010.6 hPa | 0 mm | - | 658 W/m² | - |
| 1777662333 | 17.22° C | 42% | 1010.8 hPa | 0 mm | - | 659 W/m² | - |
| 1777662029 | 17.78° C | 41% | 1010.7 hPa | 0 mm | - | 242 W/m² | - |
| 1777661725 | 16.67° C | 47% | 1010.9 hPa | 0 mm | - | 622 W/m² | - |
| 1777661422 | 16.67° C | 44% | 1010.9 hPa | 0 mm | - | 575 W/m² | - |
| 1777661118 | 15.56° C | 45% | 1011 hPa | 0 mm | - | 622 W/m² | - |
| 1777660818 | 15.56° C | 47% | 1011.1 hPa | 0 mm | - | 189 W/m² | - |
| 1777660515 | 16.67° C | 43% | 1011.3 hPa | 0 mm | - | 119 W/m² | - |
| 1777660212 | 16.67° C | 42% | 1011.4 hPa | 0 mm | - | 673 W/m² | - |
| 1777659908 | 16.67° C | 46% | 1011.2 hPa | 0 mm | - | 640 W/m² | - |
| 1777659605 | 16.67° C | 42% | 1011.1 hPa | 0 mm | - | 636 W/m² | - |
| 1777659303 | 16.67° C | 45% | 1011.2 hPa | 0 mm | - | 642 W/m² | - |
| 1777658999 | 16.67° C | 41% | 1011.2 hPa | 0 mm | - | 634 W/m² | - |
| 1777658697 | 16.67° C | 46% | 1011.3 hPa | 0 mm | - | 633 W/m² | - |
| 1777658392 | 16.67° C | 41% | 1011.3 hPa | 0 mm | - | 655 W/m² | - |
| 1777658090 | 16.67° C | 44% | 1011.3 hPa | 0 mm | - | 655 W/m² | - |
| 1777657786 | 16.67° C | 44% | 1011.3 hPa | 0 mm | - | 668 W/m² | - |
| 1777657484 | 16.67° C | 44% | 1011.7 hPa | 0 mm | - | 678 W/m² | - |
| 1777657182 | 15.56° C | 40% | 1011.6 hPa | 0 mm | - | 600 W/m² | - |
| 1777656879 | 16.11° C | 43% | 1011.6 hPa | 0 mm | - | 678 W/m² | - |
| 1777656574 | 16.67° C | 44% | 1011.7 hPa | 0 mm | - | 690 W/m² | - |
| 1777656270 | 16.11° C | 40% | 1011.6 hPa | 0 mm | - | 688 W/m² | - |
* Rain latest hour (hover to see other rain measurements)
** Current wind speed in m/s (hover to see current wind gust speed)